N3WR Weather Reports


Display with metric or nautical units.
time (UTC)temp
F
wind
direction
speed
MPH
gust
MPH
rain 1hr
in
rain 24hr
in
rain mn
in
humidity
%
barometer
mb
20260506211457 65 244 6.0 13.0 0.00 0.28 0.28 88 1006.0
20260506210002 63 215 5.0 10.0 0.00 0.28 0.28 91 1006.1
20260506204458 63 232 6.0 12.0 0.00 0.28 0.28 91 1006.1
20260506202958 62 246 5.0 11.0 0.00 0.28 0.28 92 1006.1
20260506201457 62 239 6.0 12.0 0.00 0.28 0.28 92 1006.2
20260506200001 62 241 5.0 10.0 0.00 0.28 0.28 92 1006.1
20260506194500 62 206 5.0 9.0 0.00 0.28 0.28 92 1006.1
20260506193000 62 248 6.0 13.0 0.01 0.28 0.28 93 1006.3
20260506191458 61 186 6.0 11.0 0.01 0.28 0.28 93 1006.3
20260506185959 61 214 7.0 13.0 0.01 0.28 0.28 93 1006.6
20260506184458 60 207 7.0 10.0 0.02 0.28 0.28 93 1006.7
20260506182958 60 199 7.0 13.0 0.02 0.27 0.27 93 1006.9
20260506181459 60 175 5.0 11.0 0.04 0.27 0.27 93 1007.0
20260506175959 60 200 5.0 10.0 0.05 0.27 0.27 93 1007.0
20260506174457 60 213 7.0 13.0 0.06 0.26 0.26 92 1007.1
20260506172958 60 185 6.0 12.0 0.08 0.25 0.25 92 1007.0
20260506171458 60 167 7.0 16.0 0.06 0.23 0.23 92 1007.1
20260506170003 60 180 8.0 13.0 0.06 0.22 0.22 92 1007.2
20260506164459 60 200 7.0 11.0 0.05 0.20 0.20 92 1007.3
20260506162958 60 188 4.0 9.0 0.04 0.17 0.17 92 1007.4
20260506161458 60 211 6.0 10.0 0.08 0.17 0.17 92 1007.4
20260506160004 60 223 7.0 13.0 0.08 0.16 0.16 92 1007.3
20260506154457 60 180 8.0 15.0 0.08 0.15 0.15 91 1007.3
20260506152957 60 216 7.0 14.0 0.07 0.13 0.13 92 1007.7
20260506151457 60 180 7.0 11.0 0.05 0.09 0.09 91 1008.2
20260506150005 61 192 6.0 10.0 0.06 0.08 0.08 91 1008.0
20260506144457 61 171 5.0 11.0 0.05 0.07 0.07 91 1007.6
20260506142957 61 201 4.0 7.0 0.05 0.06 0.06 90 1007.6
20260506141458 61 202 5.0 10.0 0.04 0.04 0.04 90 1008.1
20260506140003 61 164 5.0 10.0 0.02 0.02 0.02 90 1008.0
20260506134459 61 178 4.0 7.0 0.02 0.02 0.02 90 1007.7
20260506132957 61 199 4.0 8.0 0.01 0.01 0.01 89 1008.2
20260506131457 61 213 6.0 12.0 0.00 0.00 0.00 88 1008.2
20260506125958 61 174 6.0 11.0 0.00 0.00 0.00 87 1008.3
20260506124457 62 207 8.0 14.0 0.00 0.00 0.00 85 1008.3
20260506122959 63 255 7.0 10.0 0.00 0.00 0.00 84 1008.3
20260506121457 63 228 8.0 15.0 0.00 0.00 0.00 82 1007.9
20260506115958 64 173 7.0 14.0 0.00 0.00 0.00 80 1007.8
20260506114457 64 184 9.0 17.0 0.00 0.00 0.00 79 1007.8
20260506112957 64 184 8.0 15.0 0.00 0.00 0.00 79 1007.8
20260506111456 64 204 7.0 15.0 0.00 0.00 0.00 79 1007.7
20260506110001 64 178 7.0 11.0 0.00 0.00 0.00 79 1007.5
20260506104457 64 192 4.0 7.0 0.00 0.00 0.00 78 1007.5
20260506102957 64 191 4.0 7.0 0.00 0.00 0.00 78 1007.4
20260506101457 64 169 5.0 7.0 0.00 0.00 0.00 77 1007.3
20260506095958 64 174 4.0 8.0 0.00 0.00 0.00 77 1007.3
20260506094457 64 176 4.0 7.0 0.00 0.00 0.00 76 1007.4
20260506092958 64 248 4.0 6.0 0.00 0.00 0.00 75 1007.4
20260506091500 64 185 3.0 7.0 0.00 0.00 0.00 74 1007.4
20260506090001 64 193 3.0 7.0 0.00 0.00 0.00 73 1007.5
20260506084459 64 182 2.0 4.0 0.00 0.02 0.00 72 1007.6
20260506082958 65 207 2.0 4.0 0.00 0.02 0.00 70 1007.6
20260506081459 65 160 3.0 6.0 0.00 0.02 0.00 69 1007.5
20260506072957 66 172 4.0 7.0 0.00 0.02 0.00 68 1007.7
20260506071457 66 197 3.0 7.0 0.00 0.02 0.00 67 1007.8
20260506061457 66 255 2.0 5.0 0.00 0.02 0.00 65 1008.3
20260506044458 66 254 2.0 4.0 0.00 0.02 0.00 61 1008.8
20260506042959 66 215 2.0 4.0 0.00 0.02 0.00 61 1008.8
20260506041459 66 207 1.0 3.0 0.00 0.02 0.00 60 1008.9
20260506040004 67 213 2.0 4.0 0.00 0.02 0.00 60 1009.0
20260506034458 67 204 2.0 4.0 0.00 0.02 0.02 59 1008.8
20260506032958 67 213 3.0 6.0 0.00 0.02 0.02 59 1008.8
20260506031501 68 211 4.0 8.0 0.00 0.02 0.02 58 1008.8
20260506030001 68 185 4.0 7.0 0.00 0.02 0.02 57 1008.8
20260506024501 69 219 4.0 9.0 0.00 0.02 0.02 57 1008.8
20260506023003 70 180 7.0 12.0 0.00 0.02 0.02 55 1008.8
20260506021459 70 196 7.0 12.0 0.00 0.02 0.02 55 1008.9
20260506020002 70 164 6.0 11.0 0.00 0.02 0.02 54 1008.9
20260506014459 71 182 6.0 10.0 0.00 0.02 0.02 53 1008.6
20260506013001 72 175 6.0 15.0 0.00 0.02 0.02 50 1008.5
20260506011458 72 165 5.0 8.0 0.00 0.02 0.02 49 1008.2
20260506010004 73 195 6.0 9.0 0.00 0.02 0.02 49 1007.9
20260506004459 73 211 8.0 12.0 0.00 0.02 0.02 48 1007.7
20260506002959 73 171 7.0 12.0 0.00 0.02 0.02 49 1007.8
20260506001503 74 194 7.0 17.0 0.00 0.02 0.02 49 1007.6
20260506000004 74 201 7.0 13.0 0.00 0.02 0.02 48 1007.5
20260505234459 74 188 7.0 11.0 0.00 0.02 0.02 46 1007.4
20260505232959 75 196 8.0 14.0 0.00 0.02 0.02 45 1007.2
20260505231458 76 196 8.0 17.0 0.00 0.02 0.02 45 1007.3
20260505230004 76 182 9.0 18.0 0.00 0.02 0.02 44 1007.1
20260505224458 77 197 9.0 18.0 0.00 0.02 0.02 44 1007.1
20260505222958 77 172 8.0 19.0 0.00 0.02 0.02 44 1006.9
20260505221458 78 171 12.0 18.0 0.00 0.02 0.02 44 1006.9
20260505220002 78 180 10.0 19.0 0.00 0.02 0.02 44 1006.8
20260505214458 78 180 9.0 19.0 0.00 0.02 0.02 44 1006.7
20260505212958 78 193 9.0 21.0 0.00 0.02 0.02 44 1007.0